When you browse on this site, cookies collect data to enhance your experience and personalize the content and advertising you see.
Visit our Privacy Policy to learn more. By continuing to use the site, you agree to this use of cookies and data.
  • In Denmark
  • List of Countries
  • For 7 days
  • Water Temperature
  • Weather Map
  • Weather Widgets
  • user-avatar
    Login

    Hourly Weather Bedford

    Today, 22 September, Sunday

    Time Temperature Precipitation Wind Pressure Humidity
    00:00 +18°C° 0 mm 3 mps 752 mmHg 70%
    01:00 +18°C° 0.2 mm 3 mps 751 mmHg 73%
    02:00 +18°C° 0.2 mm 3 mps 750 mmHg 76%
    03:00 +18°C° 0.2 mm 3 mps 750 mmHg 80%
    04:00 +18°C° 0.3 mm 3 mps 749 mmHg 80%
    05:00 +18°C° 0.3 mm 3 mps 749 mmHg 81%
    06:00 +18°C° 0 mm 2 mps 749 mmHg 79%
    07:00 +19°C° 0.2 mm 3 mps 749 mmHg 78%
    08:00 +20°C° 0.2 mm 3 mps 749 mmHg 78%
    09:00 +21°C° 0.2 mm 4 mps 749 mmHg 77%
    10:00 +21°C° 0.8 mm 4 mps 749 mmHg 77%
    11:00 +21°C° 0.8 mm 4 mps 749 mmHg 77%
    12:00 +21°C° 0.8 mm 4 mps 749 mmHg 77%
    13:00 +20°C° 0.9 mm 4 mps 749 mmHg 80%
    14:00 +19°C° 0.9 mm 4 mps 749 mmHg 84%
    15:00 +18°C° 0.9 mm 4 mps 749 mmHg 87%
    16:00 +18°C° 0.1 mm 4 mps 749 mmHg 86%
    17:00 +18°C° 0.1 mm 4 mps 749 mmHg 85%
    18:00 +17°C° 0.1 mm 4 mps 749 mmHg 83%
    19:00 +17°C° 0 mm 3 mps 750 mmHg 84%
    20:00 +16°C° 0 mm 3 mps 750 mmHg 85%
    21:00 +14°C° 0 mm 3 mps 750 mmHg 86%
    22:00 +14°C° 0 mm 3 mps 750 mmHg 87%
    23:00 +14°C° 0 mm 3 mps 751 mmHg 89%

    Tomorrow, 23 September, Monday

    Time Temperature Precipitation Wind Pressure Humidity
    00:00 +13°C° 0 mm 3 mps 751 mmHg 90%
    01:00 +13°C° 0 mm 4 mps 751 mmHg 92%
    02:00 +13°C° 0 mm 4 mps 751 mmHg 93%
    03:00 +12°C° 0 mm 4 mps 752 mmHg 95%
    04:00 +13°C° 0 mm 5 mps 752 mmHg 94%
    05:00 +13°C° 0 mm 5 mps 752 mmHg 92%
    06:00 +13°C° 0 mm 5 mps 753 mmHg 91%
    07:00 +14°C° 0 mm 5 mps 753 mmHg 86%
    08:00 +15°C° 0 mm 5 mps 754 mmHg 81%
    09:00 +16°C° 0 mm 5 mps 754 mmHg 75%
    10:00 +17°C° 0 mm 5 mps 754 mmHg 69%
    11:00 +19°C° 0 mm 5 mps 754 mmHg 63%
    12:00 +19°C° 0 mm 5 mps 754 mmHg 56%
    13:00 +20°C° 0 mm 6 mps 754 mmHg 57%
    14:00 +20°C° 0 mm 6 mps 754 mmHg 57%
    15:00 +20°C° 0 mm 6 mps 754 mmHg 58%
    16:00 +19°C° 0 mm 6 mps 754 mmHg 64%
    17:00 +17°C° 0 mm 6 mps 753 mmHg 70%
    18:00 +16°C° 0 mm 6 mps 753 mmHg 76%
    19:00 +15°C° 0.7 mm 6 mps 753 mmHg 80%
    20:00 +15°C° 0.7 mm 7 mps 753 mmHg 84%
    21:00 +15°C° 0.7 mm 7 mps 753 mmHg 89%
    22:00 +15°C° 0.2 mm 6 mps 752 mmHg 90%
    23:00 +16°C° 0.2 mm 6 mps 752 mmHg 91%

    Day after tomorrow, 24 September, Tuesday

    Time Temperature Precipitation Wind Pressure Humidity
    00:00 +16°C° 0.2 mm 6 mps 751 mmHg 91%
    01:00 +16°C° 0.1 mm 5 mps 751 mmHg 91%
    02:00 +16°C° 0.1 mm 5 mps 750 mmHg 91%
    03:00 +17°C° 0.1 mm 5 mps 750 mmHg 91%
    04:00 +16°C° 0.5 mm 5 mps 749 mmHg 92%
    05:00 +16°C° 0.5 mm 5 mps 748 mmHg 93%
    06:00 +16°C° 0.5 mm 5 mps 748 mmHg 93%
    07:00 +16°C° 2.9 mm 5 mps 747 mmHg 92%
    08:00 +15°C° 2.9 mm 6 mps 747 mmHg 91%
    09:00 +15°C° 2.9 mm 6 mps 746 mmHg 89%
    10:00 +16°C° 1.5 mm 6 mps 746 mmHg 87%
    11:00 +16°C° 1.5 mm 5 mps 746 mmHg 85%
    12:00 +18°C° 1.5 mm 4 mps 746 mmHg 83%
    13:00 +17°C° 0.5 mm 5 mps 746 mmHg 79%
    14:00 +17°C° 0.5 mm 5 mps 746 mmHg 75%
    15:00 +19°C° 0.5 mm 6 mps 746 mmHg 71%
    16:00 +17°C° 0.1 mm 6 mps 746 mmHg 75%
    17:00 +16°C° 0.1 mm 5 mps 746 mmHg 78%
    18:00 +15°C° 0.1 mm 5 mps 746 mmHg 82%
    19:00 +15°C° 0.1 mm 5 mps 747 mmHg 84%
    20:00 +14°C° 0.1 mm 5 mps 747 mmHg 86%
    21:00 +14°C° 0.1 mm 5 mps 747 mmHg 88%
    22:00 +14°C° 0 mm 6 mps 747 mmHg 88%
    23:00 +14°C° 0 mm 6 mps 746 mmHg 88%

    25 September, Wednesday

    Time Temperature Precipitation Wind Pressure Humidity
    00:00 +14°C° 0 mm 6 mps 746 mmHg 88%
    01:00 +14°C° 0.6 mm 6 mps 745 mmHg 89%
    02:00 +14°C° 0.6 mm 6 mps 745 mmHg 90%
    03:00 +14°C° 0.6 mm 6 mps 745 mmHg 91%
    04:00 +14°C° 0.2 mm 5 mps 744 mmHg 91%
    05:00 +14°C° 0.2 mm 5 mps 744 mmHg 92%
    06:00 +14°C° 0.2 mm 5 mps 744 mmHg 92%
    07:00 +14°C° 0.2 mm 4 mps 745 mmHg 91%
    08:00 +15°C° 0.2 mm 4 mps 745 mmHg 90%
    09:00 +15°C° 0.2 mm 4 mps 745 mmHg 89%
    10:00 +17°C° 0.3 mm 4 mps 746 mmHg 85%
    11:00 +17°C° 0.3 mm 5 mps 746 mmHg 82%
    12:00 +17°C° 0.3 mm 5 mps 747 mmHg 78%
    13:00 +19°C° 0 mm 5 mps 747 mmHg 75%
    14:00 +19°C° 0 mm 5 mps 747 mmHg 72%
    15:00 +20°C° 0 mm 5 mps 748 mmHg 68%
    16:00 +19°C° 0 mm 4 mps 748 mmHg 74%
    17:00 +18°C° 0 mm 4 mps 748 mmHg 80%
    18:00 +17°C° 0 mm 3 mps 749 mmHg 85%
    19:00 +16°C° 0 mm 3 mps 749 mmHg 87%
    20:00 +16°C° 0 mm 3 mps 749 mmHg 89%
    21:00 +14°C° 0 mm 3 mps 749 mmHg 91%
    22:00 +14°C° 0.1 mm 4 mps 749 mmHg 92%
    23:00 +15°C° 0.1 mm 4 mps 749 mmHg 92%

    26 September, Thursday

    Time Temperature Precipitation Wind Pressure Humidity
    00:00 +15°C° 0.1 mm 5 mps 749 mmHg 93%
    01:00 +15°C° 0.2 mm 5 mps 749 mmHg 92%
    02:00 +16°C° 0.2 mm 6 mps 749 mmHg 91%
    03:00 +16°C° 0.2 mm 6 mps 749 mmHg 90%
    04:00 +16°C° 0.1 mm 6 mps 748 mmHg 89%
    05:00 +16°C° 0.1 mm 7 mps 748 mmHg 88%
    06:00 +15°C° 0.1 mm 7 mps 748 mmHg 88%
    07:00 +15°C° 0.4 mm 7 mps 749 mmHg 88%
    08:00 +16°C° 0.4 mm 8 mps 749 mmHg 88%
    09:00 +16°C° 0.4 mm 8 mps 749 mmHg 89%
    10:00 +17°C° 0.3 mm 8 mps 749 mmHg 82%
    11:00 +18°C° 0.3 mm 8 mps 749 mmHg 76%
    12:00 +18°C° 0.3 mm 8 mps 750 mmHg 69%
    13:00 +18°C° 0 mm 8 mps 750 mmHg 67%
    14:00 +18°C° 0 mm 7 mps 750 mmHg 65%
    15:00 +18°C° 0 mm 7 mps 750 mmHg 63%
    16:00 +17°C° 0.2 mm 6 mps 750 mmHg 68%
    17:00 +16°C° 0.2 mm 6 mps 750 mmHg 73%
    18:00 +15°C° 0.2 mm 5 mps 750 mmHg 78%
    19:00 +14°C° 0.1 mm 5 mps 751 mmHg 80%
    20:00 +14°C° 0.1 mm 5 mps 751 mmHg 82%
    21:00 +13°C° 0.1 mm 6 mps 752 mmHg 83%
    22:00 +13°C° 0 mm 5 mps 752 mmHg 85%
    23:00 +13°C° 0 mm 5 mps 752 mmHg 87%

    27 September, Friday

    Time Temperature Precipitation Wind Pressure Humidity
    00:00 +12°C° 0 mm 5 mps 752 mmHg 88%
    01:00 +12°C° 0 mm 4 mps 752 mmHg 89%
    02:00 +12°C° 0 mm 4 mps 752 mmHg 90%
    03:00 +11°C° 0 mm 4 mps 752 mmHg 90%
    04:00 +11°C° 0 mm 4 mps 752 mmHg 90%
    05:00 +10°C° 0 mm 5 mps 752 mmHg 90%
    06:00 +10°C° 0 mm 5 mps 752 mmHg 90%
    07:00 +12°C° 0 mm 5 mps 752 mmHg 85%
    08:00 +13°C° 0 mm 6 mps 752 mmHg 80%
    09:00 +14°C° 0 mm 6 mps 752 mmHg 75%
    10:00 +15°C° 0.1 mm 7 mps 752 mmHg 71%
    11:00 +16°C° 0.1 mm 7 mps 751 mmHg 67%
    12:00 +17°C° 0.1 mm 7 mps 751 mmHg 63%
    13:00 +17°C° 0.2 mm 7 mps 751 mmHg 63%
    14:00 +17°C° 0.2 mm 7 mps 751 mmHg 64%
    15:00 +16°C° 0.2 mm 7 mps 751 mmHg 65%
    16:00 +15°C° 0.1 mm 7 mps 751 mmHg 69%
    17:00 +14°C° 0.1 mm 6 mps 751 mmHg 73%
    18:00 +13°C° 0.1 mm 5 mps 751 mmHg 77%
    19:00 +13°C° 0 mm 5 mps 751 mmHg 79%
    20:00 +12°C° 0 mm 5 mps 751 mmHg 80%
    21:00 +11°C° 0 mm 6 mps 751 mmHg 81%
    22:00 +11°C° 0 mm 6 mps 751 mmHg 81%
    23:00 +11°C° 0 mm 6 mps 751 mmHg 82%
    Show more